Regional Weather Roundup
Issued by NWS

Home | Current Version | Previous Version | Graphics & Text | Print | Product List | Glossary On
Versions: 1 2 3 4 5 6 7 8 9 10 11 12 13 14 15 16 17 18 19 20 21 22 23 24 25 26 27 28 29 30 31 32 33 34 35 36 37 38 39 40 41 42 43 44 45 46 47 48 49 50
000
ASUS43 KFSD 271102
RWRSD

WEATHER ROUNDUP FOR SOUTH DAKOTA
NATIONAL WEATHER SERVICE SIOUX FALLS SD
600 AM CDT FRI MAY 27 2016

NOTE: "FAIR" INDICATES FEW OR NO CLOUDS BELOW 12,000 FEET WITH NO
SIGNIFICANT WEATHER AND/OR OBSTRUCTIONS TO VISIBILITY.


SDZ001>005-009-010-012>017-271200-
NORTHWEST AND NORTH CENTRAL SOUTH DAKOTA

CITY           SKY/WX    TMP DP  RH WIND       PRES   REMARKS
BUFFALO          N/A     48  42  80 CALM      29.81R
FAITH            N/A     47  41  80 NW9       29.82F
MOBRIDGE       PTCLDY    50  46  86 N5        29.76S
$$

SDZ012>016-024>037-041>051-057-063-072>074-271200-
SOUTHWEST AND SOUTH CENTRAL SOUTH DAKOTA

CITY           SKY/WX    TMP DP  RH WIND       PRES   REMARKS
RAPID CTY ARPT CLOUDY    51  43  74 NW7       29.85F
PIERRE         PTCLDY    54  49  83 NW9       29.74R
CUSTER         CLOUDY    44  41  89 N5        29.91S
ELLSWORTH AFB  CLOUDY    51  45  81 W7        29.84F
PHILIP         PTCLDY    49  45  86 NW10      29.79F
PINE RIDGE     CLOUDY    48  44  86 CALM      29.82F
WINNER         FAIR      57  52  83 NE3       29.74S
$$

SDZ004>011-016>023-039-040-271200-
NORTHEAST SOUTH DAKOTA

CITY           SKY/WX    TMP DP  RH WIND       PRES   REMARKS
ABERDEEN       PTCLDY    55  52  89 E6        29.76R
WATERTOWN      CLOUDY    58  53  84 CALM      29.75F
BROOKINGS      CLOUDY    57  55  93 E5        29.74F
SISSETON         N/A     54  52  93 W6        29.77S
$$

SDZ017-020-022-023-036>040-048>070-271200-
SOUTHEAST SOUTH DAKOTA

CITY           SKY/WX    TMP DP  RH WIND       PRES   REMARKS
SIOUX FALLS    CLOUDY    58  54  86 E5        29.74F
HURON          CLOUDY    57  56  96 E3        29.72F
MITCHELL       CLOUDY    59  57  93 SE5       29.71F
YANKTON        CLOUDY    61  55  82 E8        29.71R
$$

ABBREVIATIONS USED IN REMARKS
   TC - TEMPERATURE IN CELSIUS
  WCI - WIND CHILL INDEX
   HX - HEAT INDEX
  VSB - VISIBILITY




USA.gov is the U.S. government's official web portal to all federal, state and local government web resources and services.